Weather History for KD57 - February, 2014

Change the Weather History Date:

Monday, February 17, 2014

  Actual Average (KDIK) Record (KDIK)
Temperature  
Mean Temperature 32 °F 21 °F  
Max Temperature 42 °F 31 °F 59 °F (1913)
Min Temperature 23 °F 10 °F -43 °F (1936)
Degree Days  
Heating Degree Days 32 44  
Month to date heating degree days 779  
Since 1 July heating degree days 5826  
Cooling Degree Days 0 0  
Month to date cooling degree days 0  
Year to date cooling degree days 0  
Moisture  
Dew Point 23 °F    
Average Humidity 63    
Maximum Humidity 75    
Minimum Humidity 45    
Precipitation  
Precipitation 0.00 in 0.01 in 0.14 in (1955)
Month to date precipitation 0.16  
Year to date precipitation 0.46  
Sea Level Pressure  
Sea Level Pressure 29.61 in    
Wind  
Wind Speed 14 mph (WSW)    
Max Wind Speed 22 mph    
Max Gust Speed 29 mph    
Visibility 10 miles    
Events      
T = Trace of Precipitation, MM = Missing Value Source: NWS Daily Summary

Daily Weather History Graph

Daily Weather History Graph

Search for Another Location

Airport or City:

Trip Planner

Search our weather history database for the weather conditions in past years. The results will help you decide how hot, cold, wet, or windy it might be!

Date:

Astronomy

Feb. 17, 2014 Rise Set
Actual Time 6:48 AM MST 5:15 PM MST
Civil Twilight 6:17 AM MST 5:46 PM MST
Nautical Twilight 5:41 AM MST 6:21 PM MST
Astronomical Twilight 5:06 AM MST 6:57 PM MST
Moon 8:26 PM MST (2/17) 7:37 AM MST (2/17)
Length of Visible Light 11h 29m
Length of Day
10h 27m
Waning Gibbous, 93% of the Moon is Illuminated
Feb 17
Waning Gibbous
Feb 22
Last Quarter
Mar 1
New
Mar 8
First Quarter
Mar 16
Full

Hourly Weather History & Observations

Time (MST) Temp. Windchill Dew Point Humidity Pressure Visibility Wind Dir Wind Speed Gust Speed Precip Events Conditions
12:15 AM 35.6 °F 26.2 °F 26.6 °F 70% 29.66 in 10.0 mi WNW 15.0 mph - N/A   Clear
12:35 AM 35.6 °F 25.5 °F 24.8 °F 65% 29.66 in 10.0 mi WNW 17.3 mph 26.5 mph N/A   Clear
12:55 AM 35.6 °F 25.2 °F 24.8 °F 65% 29.67 in 10.0 mi WNW 18.4 mph 24.2 mph N/A   Scattered Clouds
1:15 AM 35.6 °F 25.2 °F 24.8 °F 65% 29.67 in 10.0 mi WNW 18.4 mph 26.5 mph N/A   Mostly Cloudy
1:35 AM 35.6 °F 24.8 °F 24.8 °F 65% 29.67 in 10.0 mi WNW 19.6 mph 28.8 mph N/A   Overcast
1:55 AM 33.8 °F 21.9 °F 21.2 °F 60% 29.67 in 10.0 mi WNW 21.9 mph - N/A   Mostly Cloudy
2:15 AM 32.0 °F 21.2 °F 21.2 °F 64% 29.68 in 10.0 mi WNW 16.1 mph 23.0 mph N/A   Partly Cloudy
2:35 AM 32.0 °F 21.2 °F 21.2 °F 64% 29.68 in 10.0 mi WNW 16.1 mph - N/A   Clear
2:55 AM 32.0 °F 22.1 °F 19.4 °F 60% 29.68 in 10.0 mi WNW 13.8 mph - N/A   Clear
3:15 AM 32.0 °F 20.8 °F 19.4 °F 60% 29.68 in 10.0 mi WNW 17.3 mph 23.0 mph N/A   Clear
3:35 AM 30.2 °F 20.2 °F 17.6 °F 60% 29.68 in 10.0 mi WNW 12.7 mph 19.6 mph N/A   Clear
3:55 AM 28.4 °F 17.5 °F 19.4 °F 69% 29.69 in 10.0 mi West 13.8 mph - N/A   Clear
4:15 AM 28.4 °F 17.0 °F 19.4 °F 69% 29.69 in 10.0 mi West 15.0 mph 23.0 mph N/A   Clear
4:35 AM 26.6 °F 14.7 °F 17.6 °F 69% 29.70 in 10.0 mi West 15.0 mph - N/A   Clear
4:55 AM 26.6 °F 15.7 °F 17.6 °F 69% 29.70 in 10.0 mi West 12.7 mph - N/A   Clear
5:15 AM 26.6 °F 15.7 °F 17.6 °F 69% 29.71 in 10.0 mi West 12.7 mph - N/A   Clear
5:35 AM 26.6 °F 16.8 °F 17.6 °F 69% 29.72 in 10.0 mi West 10.4 mph - N/A   Clear
5:55 AM 24.8 °F 14.6 °F 15.8 °F 69% 29.73 in 10.0 mi WNW 10.4 mph - N/A   Clear
6:15 AM 23.0 °F 13.9 °F 15.8 °F 74% 29.73 in 10.0 mi WNW 8.1 mph - N/A   Clear
6:35 AM 24.8 °F 14.0 °F 15.8 °F 69% 29.73 in 10.0 mi West 11.5 mph - N/A   Clear
6:55 AM 24.8 °F 15.3 °F 15.8 °F 69% 29.74 in 10.0 mi WNW 9.2 mph - N/A   Clear
7:15 AM 24.8 °F - 15.8 °F 69% 29.75 in 10.0 mi Calm Calm - N/A   Clear
7:35 AM 26.6 °F - 17.6 °F 69% 29.75 in 10.0 mi Calm Calm - N/A   Clear
7:55 AM 30.2 °F 22.6 °F 17.6 °F 60% 29.76 in 10.0 mi West 8.1 mph - N/A   Clear
8:15 AM 26.6 °F 19.1 °F 15.8 °F 64% 29.76 in 10.0 mi West 6.9 mph - N/A   Clear
8:35 AM 28.4 °F 19.1 °F 17.6 °F 64% 29.75 in 10.0 mi West 10.4 mph - N/A   Clear
8:55 AM 30.2 °F 21.9 °F 17.6 °F 60% 29.74 in 10.0 mi West 9.2 mph - N/A   Clear
9:15 AM 32.0 °F 20.5 °F 19.4 °F 60% 29.73 in 10.0 mi West 18.4 mph - N/A   Clear
9:35 AM 33.8 °F 23.9 °F 19.4 °F 56% 29.73 in 10.0 mi West 15.0 mph - N/A   Clear
9:55 AM 33.8 °F 23.2 °F 19.4 °F 56% 29.72 in 10.0 mi WSW 17.3 mph - N/A   Clear
10:15 AM 35.6 °F 26.6 °F 19.4 °F 52% 29.71 in 10.0 mi WSW 13.8 mph 21.9 mph N/A   Clear
10:35 AM 37.4 °F 29.3 °F 21.2 °F 52% 29.70 in 10.0 mi West 12.7 mph - N/A   Clear
10:55 AM 39.2 °F 30.8 °F 19.4 °F 45% 29.69 in 10.0 mi West 15.0 mph - N/A   Clear
11:15 AM 39.2 °F 31.6 °F 21.2 °F 49% 29.68 in 10.0 mi WSW 12.7 mph 19.6 mph N/A   Clear
11:35 AM 41.0 °F 33.5 °F 23.0 °F 49% 29.67 in 10.0 mi SW 13.8 mph - N/A   Clear
11:55 AM 39.2 °F 30.8 °F 23.0 °F 52% 29.65 in 10.0 mi SSW 15.0 mph - N/A   Clear
12:15 PM 39.2 °F 30.2 °F 23.0 °F 52% 29.63 in 10.0 mi SW 17.3 mph 23.0 mph N/A   Clear
12:35 PM 41.0 °F 33.1 °F 23.0 °F 49% 29.62 in 10.0 mi SW 15.0 mph - N/A   Clear
12:55 PM 41.0 °F 32.5 °F 23.0 °F 49% 29.61 in 10.0 mi SW 17.3 mph - N/A   Clear
1:15 PM 41.0 °F 32.8 °F 24.8 °F 53% 29.61 in 10.0 mi SW 16.1 mph 23.0 mph N/A   Clear
1:35 PM 41.0 °F 31.6 °F 24.8 °F 53% 29.61 in 10.0 mi SW 20.7 mph - N/A   Light Drizzle
1:55 PM 41.0 °F 31.4 °F 24.8 °F 53% 29.59 in 10.0 mi SW 21.9 mph - N/A   Clear
2:15 PM 41.0 °F 31.6 °F 26.6 °F 57% 29.58 in 10.0 mi SW 20.7 mph 28.8 mph N/A   Clear
2:35 PM 42.8 °F 34.3 °F 26.6 °F 53% 29.57 in 10.0 mi SW 19.6 mph - N/A   Scattered Clouds
2:55 PM 42.8 °F 34.0 °F 26.6 °F 53% 29.56 in 10.0 mi SW 20.7 mph 26.5 mph N/A   Partly Cloudy
3:15 PM 42.8 °F 34.5 °F 26.6 °F 53% 29.55 in 10.0 mi SW 18.4 mph 26.5 mph N/A   Clear
3:35 PM 41.0 °F 31.6 °F 26.6 °F 57% 29.54 in 10.0 mi SW 20.7 mph - N/A   Clear
3:55 PM 41.0 °F 32.2 °F 26.6 °F 57% 29.53 in 10.0 mi SSW 18.4 mph - N/A   Clear
4:15 PM 41.0 °F 32.5 °F 28.4 °F 61% 29.52 in 10.0 mi SW 17.3 mph - N/A   Clear
4:35 PM 39.2 °F 30.5 °F 28.4 °F 65% 29.53 in 10.0 mi SSW 16.1 mph - N/A   Clear
4:55 PM 37.4 °F 28.5 °F 28.4 °F 70% 29.53 in 10.0 mi SSW 15.0 mph - N/A   Clear
5:15 PM 37.4 °F 28.5 °F 28.4 °F 70% 29.53 in 10.0 mi SW 15.0 mph - N/A   Clear
5:35 PM 37.4 °F 28.9 °F 28.4 °F 70% 29.53 in 10.0 mi SSW 13.8 mph - N/A   Clear
5:55 PM 35.6 °F 26.2 °F 28.4 °F 75% 29.52 in 10.0 mi SSW 15.0 mph - N/A   Clear
6:15 PM 35.6 °F 26.6 °F 28.4 °F 75% 29.51 in 10.0 mi SW 13.8 mph - N/A   Clear
6:35 PM 35.6 °F 27.1 °F 26.6 °F 70% 29.51 in 10.0 mi SW 12.7 mph - N/A   Clear
6:55 PM 35.6 °F 25.9 °F 26.6 °F 70% 29.50 in 10.0 mi SW 16.1 mph - N/A   Clear
7:15 PM 35.6 °F 26.6 °F 26.6 °F 70% 29.50 in 10.0 mi SW 13.8 mph - N/A   Clear
7:35 PM 35.6 °F 25.9 °F 26.6 °F 70% 29.49 in 10.0 mi SW 16.1 mph - N/A   Clear
7:55 PM 35.6 °F 25.9 °F 26.6 °F 70% 29.48 in 10.0 mi SW 16.1 mph - N/A   Clear
8:15 PM 35.6 °F 26.2 °F 24.8 °F 65% 29.48 in 10.0 mi SW 15.0 mph - N/A   Clear
8:35 PM 33.8 °F 29.6 °F 24.8 °F 70% 29.48 in 10.0 mi Variable 4.6 mph 13.8 mph N/A   Clear
8:55 PM 32.0 °F 26.4 °F 24.8 °F 75% 29.48 in 10.0 mi NW 5.8 mph - N/A   Clear
9:15 PM 33.8 °F 28.6 °F 24.8 °F 70% 29.48 in 10.0 mi Variable 5.8 mph - N/A   Clear
9:35 PM 33.8 °F 29.6 °F 23.0 °F 65% 29.48 in 10.0 mi Variable 4.6 mph - N/A   Clear
9:55 PM 35.6 °F 29.2 °F 23.0 °F 60% 29.48 in 10.0 mi West 8.1 mph - N/A   Clear
10:15 PM 32.0 °F - 23.0 °F 69% 29.48 in 10.0 mi Calm Calm - N/A   Clear
10:35 PM 33.8 °F 27.7 °F 23.0 °F 65% 29.48 in 10.0 mi WNW 6.9 mph - N/A   Clear
10:55 PM 33.8 °F 27.7 °F 23.0 °F 65% 29.48 in 10.0 mi WNW 6.9 mph - N/A   Clear
11:15 PM 33.8 °F 27.0 °F 23.0 °F 65% 29.48 in 10.0 mi West 8.1 mph - N/A   Clear
11:35 PM 33.8 °F 26.4 °F 23.0 °F 65% 29.48 in 10.0 mi West 9.2 mph - N/A   Clear
11:55 PM 33.8 °F 26.4 °F 23.0 °F 65% 29.49 in 10.0 mi West 9.2 mph - N/A   Clear